Location: Munkebjergskolens Observatorium
(55.3864°N, 10.3987°E)
Time: 22:54:26
(UTC+01:00)

Envisat - Pass Details

Date: 07 December 2022
Orbit: 763 x 765 km, 98.2° (Epoch: 01 February)

Event Time Altitude Azimuth Distance (km) Brightness Sun altitude
Rises 06:07:14 0° 11° (N) 3,249 6.2 -18.8°
Reaches altitude 10° 06:09:47 10° 0° (N) 2,318 5.4 -18.4°
Enters shadow 06:13:47 29° 309° (NW) 1,391 3.8 -17.9°
